sat.trackr.live / text

‹ back to catalog

KUIPER-00107

NORAD 65145 · 2025-171P

PAYLOAD ACTIVE UNKNOWN

§ Identity

Operator
Country
US
Launch date
2025-08-11
Launch site
AFETR
Launch vehicle
Mass (kg)
RCS (m²)

External: N2YO · Heavens-Above · Gunter

§ Orbital elements

Epoch: 2026-09-20T23:37:37.356960Z

Period
97.30 min
Inclination
51.9018°
Eccentricity
0.0000735
Mean motion
14.79929728 rev/d
Perigee alt
629.0 km
Apogee alt
630.1 km
Semi-major
7,007.7 km
B*
2.8299e-4
RAAN
4.5052°
Arg perigee
75.7259°
Mean anomaly
284.3785°
Rev number
6,195

§ Raw data

KUIPER-001071 65145U 25171P   26263.98446015  .00001937  00000+0  28299-3 0  99952 65145  51.9018   4.5052 0000735  75.7259 284.3785 14.79929728 61959

JSON: /api/v1/satellites/65145 · /tle

For live sub-satellite position, see the globe view (requires WebGL).

§ Visibility from observer

Set your observer location to see the next 7 days of passes ≥ 10°. The values pass through the URL so the page stays shareable.

No JS? Fill the form by hand. The geolocation button needs JavaScript.